Overview Statistics Trail Chart Weather Telemetry Raw packets
 

This is the latest recevied weather packets stored in our database for station/object EA1GEC-10. If no packets are shown the sender has not sent any weather packets the latest 10 day(s).

<< 29 30 31 32 33 34 35 >>
Time Temp. Humidity Pressure Rain* Wind** Luminosity Snow
1777109082 17.22° C 61% 1026.6 hPa - - - -
1777108182 17.22° C 62% 1026.6 hPa - - - -
1777107282 16.67° C 63% 1026.7 hPa - - - -
1777106382 16.11° C 64% 1026.8 hPa - - - -
1777105482 15.56° C 64% 1026.8 hPa - - - -
1777104582 15° C 65% 1026.7 hPa - - - -
1777103682 15° C 65% 1026.7 hPa - - - -
1777102781 15° C 65% 1026.7 hPa - - - -
1777101881 15° C 66% 1026.7 hPa - - - -
1777100981 15° C 68% 1026.6 hPa - - - -
1777100081 15° C 70% 1026.6 hPa - - - -
1777099181 15° C 72% 1026.5 hPa - - - -
1777098281 15° C 75% 1026.4 hPa - - - -
1777097410 15.56° C 75% 1026.3 hPa - - - -
1777097381 15.56° C 75% 1026.3 hPa - - - -
1777096481 15° C 75% 1026.3 hPa - - - -
1777095581 15° C 74% 1026.2 hPa - - - -
1777094681 15.56° C 74% 1026.1 hPa - - - -
1777093781 15.56° C 74% 1026.1 hPa - - - -
1777092881 15.56° C 74% 1026 hPa - - - -
1777091980 15.56° C 75% 1026 hPa - - - -
1777091080 15.56° C 75% 1026 hPa - - - -
1777090180 15.56° C 75% 1026.1 hPa - - - -
1777089280 15.56° C 74% 1026.3 hPa - - - -
1777088380 15.56° C 74% 1026.3 hPa - - - -

* Rain since midnight (hover to see other rain measurements)
** Current wind speed in m/s (hover to see current wind gust speed)